Regional Weather Roundup
Issued by NWS Jackson, KY

Home | Current Version | Previous Version | Graphics & Text | Print | Product List | Glossary On
Versions: 1 2 3 4 5 6 7 8 9 10 11 12 13 14 15 16 17 18 19 20 21 22 23 24 25 26 27 28 29 30 31 32 33 34 35 36 37 38 39 40 41 42 43 44 45 46 47 48 49 50
000
ASUS43 KJKL 111111
RWRJKL

EAST KENTUCKY HOURLY WEATHER ROUNDUP
NATIONAL WEATHER SERVICE JACKSON KY
700 AM EDT FRI JUL 11 2014

NOTE: "FAIR" INDICATES FEW OR NO CLOUDS BELOW 12,000 FEET WITH
NO SIGNIFICANT WEATHER AND/OR OBSTRUCTIONS TO VISIBILITY.

* THESE REPORTS ARE NOT UNDER NWS QUALITY CONTROL AND MAY NOT
  REPORT WEATHER SUCH AS PRECIPITATION AND FOG.

KYZ079-080-083-085-087-088-110-112-115-119-120-111200
...EASTERN KENTUCKY...

CITY           SKY/WX    TMP DP  RH WIND       PRES   REMARKS
JACKSON        CLEAR     66  60  81 CALM      30.19R
LONDON         CLEAR     65  61  87 CALM      30.18R
SOMERSET*      CLEAR     61  61 100 CALM      30.18R FOG
MONTICELLO*    FOG       59  59 100 CALM      30.19R VSB 1
WILLIAMSBURG*  CLOUDY    59  59 100 CALM      30.18R
MIDDLESBORO*   FOG       61  61 100 CALM      30.20R VSB 1/2
HARLAN APT*    CLOUDY    61  59  94 MISG      30.20R VSB<1/4
BLACK MTN*       N/A     63  55  77 SW1         N/A
PIKEVILLE APT* CLEAR     64  63  94 CALM      30.19R
BIG SANDY*     SUNNY     63  63  99 CALM      30.19R
MOREHEAD APT*    N/A     63  59  88 CALM      30.20R
$$

KYZ035-036-041-042-044-050-067-078-099-111200
...CENTRAL KENTUCKY...

CITY           SKY/WX    TMP DP  RH WIND       PRES   REMARKS
MT STERLING*   CLEAR     59  57  94 CALM      30.20R
FLEMING/MASON* CLEAR     59  57  94 NE3       30.20R
DANVILLE*      CLEAR     59  55  88 CALM      30.19R
RICHMOND*      CLEAR     61  57  88 CALM      30.17R
LEXINGTON      CLEAR     62  57  83 NE6       30.18R
FRANKFORT      CLEAR     63  58  83 CALM      30.17R
$$

KYZ091>093-OHZ055-061-077-WVZ005-015-034-035-042-111200
...SOUTHERN OHIO/WEST VIRGINIA...

CITY           SKY/WX    TMP DP  RH WIND       PRES   REMARKS
COVINGTON      PTCLDY    63  55  75 N5        30.19R
COLUMBUS       PTCLDY    64  57  78 N5        30.19R
DAYTON         CLEAR     60  55  83 CALM      30.22R
WILMINGTON     CLEAR     58  55  90 NE3       30.20R
HUNTINGTON     CLEAR     63  62  97 CALM      30.17R FOG
CHARLESTON     FOG       63  63 100 CALM      30.17R VSB 1
PINEVILLE*     FOG       62  62 100 MISG      30.26R VSB 1/4
BECKLEY        CLEAR     60  57  89 CALM      30.23R
BLUEFIELD      CLEAR     65  58  78 CALM      30.25R
$$

VAZ002-007-008-TNZ017-027-036-066-071-111200
...SOUTHWEST VIRGINIA/EAST TENNESSEE...

CITY           SKY/WX    TMP DP  RH WIND       PRES   REMARKS
WISE*          CLEAR     61  57  88 CALM      30.25R
JONESVILLE*      N/A     59  59 100 CALM      30.21R
ABINGDON*      CLEAR     64  62  94 E6        30.22R
BRISTOL        PTCLDY    63  61  93 CALM      30.20R FOG
KNOXVILLE      PTCLDY    65  64  97 CALM      30.15R
OAK RIDGE      CLEAR     66  64  93 CALM      30.16R FOG
CROSSVILLE     CLEAR     62  59  90 CALM      30.20R FOG
NASHVILLE      PTCLDY    67  64  90 CALM      30.14R
$$

...KEY TO REMARKS...
VSB - VISIBILITY IN MILES
WCI - WIND CHILL INDEX
HX  - HEAT INDEX

$$



USA.gov is the U.S. government's official web portal to all federal, state and local government web resources and services.